Location: Góry Miechowskie
(50.3599°N, 20.1803°E)
Time: 20:35:05
(UTC+00:00)

A-11 Canister half - Pass Details

Date: 16 September 2024
Orbit: 1524 x 1683 km, 47.3° (Epoch: 13 October)

Event Time Altitude Azimuth Distance (km) Brightness Sun altitude
Rises 18:34:46 0° 288° (WNW) 4,827 13.3 -16.9°
Reaches altitude 10° 18:38:13 10° 280° (W) 3,862 12.3 -17.4°
Maximum altitude 18:46:38 33° 221° (SW) 2,516 10.2 -18.6°
Enters shadow 18:54:40 12° 164° (SSE) 3,789 10.6 -19.7°
